C/2014 W5 ( Lemmon-PanSTARRS )

Japanese version
Home page
Updated on March 22, 2020

---------------------------------------------------------------------

* Profile

Discovery Date November 16 and 20, 2014
Magnitude 19.7 mag, 21.4 mag
Discoverer A. D. Grauer (Mount Lemmon Survey), Pan-STARRS 1 telescope (Haleakala)

* Pictures

* Orbital Elements

Epoch 2016 Feb. 22.0 TT = JDT 2457440.5                                         
T 2016 Feb. 10.54837 TT                                 Bell                    
q   2.3984795            (2000.0)            P               Q                  
z  +0.0086246      Peri.  281.25375     +0.65314384     -0.55528759             
 +/-0.0000245      Node   245.34541     -0.25105832     -0.80023491             
e   0.9793140      Incl.  145.49491     -0.71440384     -0.22645040             
From 49 observations 2014 Oct. 26-2015 Jan. 22, mean residual 0".5.             

* Finding Charts

* Magnitudes Graph

        m1 = 12.5 + 5 log d + 10.0 log r(t + 350)

        * Gray curve is:  m1 = 9.5 + 5 log d + 10.0 log r

---------------------------------------------------------------------

The orbital elements are published on M.P.E.C. 2020-E26.
The charts are made with StellaNavigator Ver.8 (AstroArts).
The magnitudes graphs are made with Comet for Windows.

---------------------------------------------------------------------

Copyright(C) Seiichi Yoshida (comet@aerith.net). All rights reserved.